Location: Wyalusing
(42.9440°N, 91.1410°W)
Time: 16:21:51
(UTC-05:00)

Envisat - Visible Passes

Search period start: 19 April 2018 00:00
Search period end: 29 April 2018 00:00
Orbit: 764 x 766 km, 98.2° (Epoch: 19 April)

Date Brightness Start Highest point End Pass type
(mag) Time Alt. Az. Time Alt. Az. Time Alt. Az.
19 Apr 3.0 20:20:55 10° SSE 20:25:59 85° ENE 20:31:06 10° NNW visible
19 Apr 5.9 22:04:05 10° WSW 22:05:39 11° W 22:07:14 10° WNW visible
20 Apr 5.1 21:24:21 10° SSW 21:28:31 25° W 21:32:43 10° NW visible
21 Apr 3.7 20:46:37 10° S 20:51:35 55° W 20:56:36 10° NNW visible
22 Apr 5.7 21:51:35 10° WSW 21:54:22 15° W 21:57:09 10° NW visible
23 Apr 4.7 21:12:47 10° SSW 21:17:17 32° W 21:21:50 10° NNW visible
24 Apr 3.3 20:35:22 10° S 20:40:25 70° WSW 20:45:31 10° NNW visible
25 Apr 5.5 21:39:36 10° SW 21:43:05 19° W 21:46:37 10° NW visible
26 Apr 4.3 21:01:20 10° SSW 21:06:05 40° W 21:10:52 10° NNW visible
27 Apr 3.1 20:24:11 10° SSE 20:29:16 88° WSW 20:34:23 10° NNW visible
27 Apr 6.1 22:08:36 10° W 22:09:00 10° W 22:09:24 10° W visible
28 Apr 5.2 21:27:50 10° SW 21:31:50 23° W 21:35:52 10° NW visible
